Find OneWeb SL0302

NORAD ID: 49091 Int'l Des: 2021-075 Owner: ONEWEBN Country: UK Constellation: oneweb operational
LEOCIRCULARPOLARONEWEB_TYPE

現在のビュー

3D地球を読み込み中...

About OneWeb SL0302

OneWeb SL0302 (NORAD 49091) is a oneweb constellation satellite launched Aug 21, 2021 by ONEWEBN of UK. It operates in LEO, CIRCULAR, POLAR, ONEWEB_TYPE orbit with a mass of 148.00 kg.

OneWeb SL0302について

説明を読み込み中...

次回通過

Passes for default location (London). Set your location on the main map for personalized predictions.

高度履歴

Loading altitude history...

軌道要素

1 49091U 21075S 26169.06574481 -.00000406 00000-0 -11629-2 0 9990
2 49091 87.8950 350.4916 0001958 99.5489 260.5861 13.12443198234662
Epoch: Jun 18, 2026 • Age: 15 hours

現在のステータス

高度 1221.8 km
速度 7.25 km/s
衛星直下点 55.23°N, 160.97°W
打ち上げ日 Aug 21, 2021
運用期間 4.8 years
タイプ internet

技術仕様

分類 Payload
質量 148.00 kg
乾燥質量 140.00 kg
総質量 148.00 kg
長さ 1.30 m
直径 1.00 m
スパン 5.00 m
形状 Trapezoid+2 pan
製造者 ONEWUS
バスタイプ ARROW
フェーズステータス In Orbit
所有者/国 ONEWEBN/UK

Most Searched